F46 weather

Rockwall Municipal Airport
Rockwall, Texas, United States

Public forecast

Using degrees Fahrenheit for public forecast. Weather courtesy of forecast.io.

Current aviation weather report (METAR) for Rockwall Municipal Airport

Retrieved UTC (0 seconds ago):

Closest aviation forecast (TAF) to Rockwall Municipal Airport

Closest forecast is Dallas Love Field, 21.6 nm (40.0 km) WSW. Retrieved 2020-08-05 00:28 UTC (4 hours ago):

TAF KDAL 042326Z 0500/0524 10006KT P6SM FEW100 SCT180 BKN250 FM051200 10009KT P6SM VCTS BKN100CB FM051600 11009KT P6SM VCSH BKN150 FM051800 12010KT P6SM BKN100